CJT17T RJAH-YMML

Flight info

Callsign CJT17T
Flight time N/A
Altitude 33000
Route CVT INUBO Y820 DAGDA A337 TEGOD/N0472F340 G205 UNZ/N0474F330 B586 KAPOK/N0470F350 B586 PY R346 MABRO/N0462F370 R346 TL Q30 ANRUB/N0459F380 Q30 MATAR/N0458F370 Y33 MIMIB/N0455F390 Y33 DUBED/N0448F380 Q35 DORSU H119 ARBEY
Aircraft B763/H-SDE3FGHIM3RWXY/LB1

Departure

Time 2026-04-21 14:13
Airport Ibaraki Airport (RJAH)

Arrival

Time N/A
Airport Melbourne Airport (YMML)
Time Latitude Longitude Altitude Speed Heading
2026-04-21 13:25 36.17685 140.40822 115 ft 0 kts 332°
2026-04-21 14:05 36.17690 140.40819 115 ft 1 kts 333°
2026-04-21 14:05 36.17695 140.40817 115 ft 0 kts 343°
2026-04-21 14:05 36.17701 140.40816 115 ft 1 kts 353°
2026-04-21 14:06 36.17714 140.40820 115 ft 2 kts 21°
2026-04-21 14:06 36.17729 140.40836 115 ft 3 kts 53°
2026-04-21 14:06 36.17739 140.40865 115 ft 5 kts 70°
2026-04-21 14:06 36.17748 140.40913 115 ft 6 kts 87°
2026-04-21 14:07 36.17742 140.40976 116 ft 8 kts 104°
2026-04-21 14:07 36.17723 140.41048 115 ft 9 kts 115°
2026-04-21 14:07 36.17674 140.41087 115 ft 8 kts 173°
2026-04-21 14:07 36.17612 140.41074 116 ft 9 kts 197°
2026-04-21 14:08 36.17543 140.41045 115 ft 11 kts 201°
2026-04-21 14:08 36.17462 140.41007 115 ft 13 kts 199°
2026-04-21 14:08 36.17371 140.40970 116 ft 14 kts 197°
2026-04-21 14:08 36.17269 140.40926 116 ft 16 kts 200°
2026-04-21 14:09 36.17176 140.40886 115 ft 12 kts 196°
2026-04-21 14:09 36.17088 140.40878 115 ft 13 kts 179°
2026-04-21 14:09 36.17023 140.40916 115 ft 10 kts 129°
2026-04-21 14:09 36.16993 140.40997 116 ft 8 kts 109°
2026-04-21 14:10 36.17002 140.41046 115 ft 5 kts 43°
2026-04-21 14:10 36.17026 140.41063 115 ft 0 kts 24°
2026-04-21 14:12 36.17080 140.41092 115 ft 26 kts 23°
2026-04-21 14:12 36.17444 140.41257 116 ft 85 kts 19°
2026-04-21 14:12 36.18185 140.41583 116 ft 137 kts 20°
2026-04-21 14:13 36.19192 140.42038 265 ft 164 kts 19°
2026-04-21 14:13 36.20253 140.42500 507 ft 159 kts 18°
2026-04-21 14:13 36.21222 140.43214 937 ft 175 kts 50°
2026-04-21 14:13 36.21784 140.44635 1450 ft 191 kts 62°
2026-04-21 14:14 36.22468 140.46140 1880 ft 214 kts 52°
2026-04-21 14:14 36.23385 140.47720 2189 ft 241 kts 49°
2026-04-21 14:14 36.24457 140.49376 2643 ft 250 kts 46°
2026-04-21 14:14 36.25590 140.51024 3114 ft 251 kts 44°
2026-04-21 14:15 36.26748 140.52641 3567 ft 253 kts 43°
2026-04-21 14:15 36.27943 140.54271 4020 ft 256 kts 42°
2026-04-21 14:15 36.29183 140.55939 4379 ft 270 kts 42°
2026-04-21 14:15 36.30444 140.57629 5247 ft 269 kts 42°
2026-04-21 14:16 36.31724 140.59334 5837 ft 278 kts 41°
2026-04-21 14:16 36.33052 140.61099 6571 ft 281 kts 42°
2026-04-21 14:16 36.34390 140.62878 7259 ft 286 kts 42°
2026-04-21 14:16 36.35735 140.64665 7923 ft 291 kts 42°
2026-04-21 14:17 36.37122 140.66509 8651 ft 292 kts 43°
2026-04-21 14:17 36.38522 140.68370 9266 ft 298 kts 41°
2026-04-21 14:17 36.39943 140.70261 9945 ft 303 kts 41°
2026-04-21 14:17 36.41423 140.72220 10019 ft 319 kts 42°
2026-04-21 14:18 36.42914 140.74213 10007 ft 310 kts 41°
2026-04-21 14:18 36.44343 140.76121 10000 ft 299 kts 42°
2026-04-21 14:18 36.45764 140.78015 10019 ft 297 kts 42°
2026-04-21 14:18 36.47176 140.79894 10082 ft 299 kts 42°
2026-04-21 14:19 36.48603 140.81796 10295 ft 302 kts 42°
2026-04-21 14:19 36.50032 140.83702 10518 ft 306 kts 41°
2026-04-21 14:19 36.51491 140.85649 10708 ft 307 kts 42°
2026-04-21 14:19 36.52952 140.87602 10911 ft 306 kts 41°
2026-04-21 14:20 36.54408 140.89584 10966 ft 318 kts 47°
2026-04-21 14:20 36.55574 140.92030 11155 ft 346 kts 66°
2026-04-21 14:20 36.56148 140.95038 11478 ft 369 kts 83°
2026-04-21 14:20 36.56014 140.98254 11885 ft 387 kts 101°
2026-04-21 14:21 36.55127 141.01419 12660 ft 389 kts 119°
2026-04-21 14:21 36.53605 141.04190 13252 ft 393 kts 135°
2026-04-21 14:21 36.51525 141.06380 13840 ft 392 kts 153°
2026-04-21 14:21 36.49094 141.07768 14563 ft 384 kts 169°
2026-04-21 14:22 36.46461 141.08324 15098 ft 377 kts 189°
2026-04-21 14:22 36.43916 141.07951 15777 ft 366 kts 204°
2026-04-21 14:22 36.41670 141.06741 16650 ft 346 kts 221°
2026-04-21 14:22 36.39755 141.04999 17222 ft 346 kts 226°
2026-04-21 14:23 36.37774 141.03221 17827 ft 349 kts 226°
2026-04-21 14:23 36.36043 141.01288 18805 ft 336 kts 231°
2026-04-21 14:23 36.34288 140.99306 19320 ft 344 kts 230°
2026-04-21 14:23 36.32500 140.97328 19916 ft 348 kts 230°
2026-04-21 14:24 36.30664 140.95334 20571 ft 350 kts 229°
2026-04-21 14:24 36.28868 140.93393 21211 ft 351 kts 230°
2026-04-21 14:24 36.26988 140.91383 21587 ft 361 kts 227°
2026-04-21 14:24 36.24882 140.89687 22471 ft 367 kts 217°
2026-04-21 14:25 36.22438 140.88455 22820 ft 390 kts 206°
2026-04-21 14:25 36.19734 140.87791 23377 ft 404 kts 198°
2026-04-21 14:25 36.16964 140.87357 24196 ft 398 kts 199°
2026-04-21 14:25 36.14219 140.86891 24609 ft 404 kts 199°
2026-04-21 14:26 36.11422 140.86423 24983 ft 411 kts 200°
2026-04-21 14:26 36.08561 140.85945 25445 ft 415 kts 200°
2026-04-21 14:26 36.05731 140.85477 26100 ft 413 kts 200°
2026-04-21 14:26 36.02845 140.84992 26351 ft 422 kts 200°
2026-04-21 14:27 35.99917 140.84506 26868 ft 424 kts 200°
2026-04-21 14:27 35.97012 140.84021 27217 ft 430 kts 200°
2026-04-21 14:27 35.94050 140.83533 27811 ft 428 kts 200°
2026-04-21 14:27 35.91081 140.83038 28147 ft 434 kts 201°
2026-04-21 14:28 35.88079 140.82542 28645 ft 435 kts 201°
2026-04-21 14:28 35.85081 140.82047 28992 ft 440 kts 201°
2026-04-21 14:28 35.82033 140.81529 29330 ft 445 kts 201°
2026-04-21 14:28 35.78910 140.81265 30025 ft 457 kts 192°
2026-04-21 14:29 35.75673 140.81596 30249 ft 481 kts 183°
2026-04-21 14:29 35.72319 140.82570 30400 ft 507 kts 173°
2026-04-21 14:29 35.69046 140.84233 31233 ft 515 kts 163°
2026-04-21 14:29 35.65892 140.86479 31400 ft 536 kts 155°
2026-04-21 14:30 35.62929 140.89351 31797 ft 550 kts 145°
2026-04-21 14:30 35.60243 140.92764 32071 ft 565 kts 136°
2026-04-21 14:30 35.57843 140.96530 32648 ft 565 kts 136°
2026-04-21 14:30 35.55267 141.00212 32940 ft 565 kts 139°
2026-04-21 14:31 35.52623 141.03717 33087 ft 561 kts 140°
2026-04-21 14:31 35.47271 141.10460 33073 ft 551 kts 141°
2026-04-21 14:32 35.41793 141.17094 33069 ft 551 kts 146°
2026-04-21 14:32 35.35671 141.22420 33080 ft 537 kts 157°
2026-04-21 14:33 35.29364 141.27193 33069 ft 532 kts 158°
2026-04-21 14:33 35.23022 141.31928 33082 ft 535 kts 157°
2026-04-21 14:34 35.16694 141.36627 33075 ft 533 kts 157°
2026-04-21 14:34 35.10364 141.41312 33087 ft 532 kts 158°
2026-04-21 14:35 35.04036 141.45985 33078 ft 532 kts 158°
2026-04-21 14:35 34.97707 141.50648 33082 ft 533 kts 157°
2026-04-21 14:36 34.91415 141.55278 33070 ft 530 kts 156°
2026-04-21 14:36 34.85060 141.59943 33079 ft 533 kts 157°
2026-04-21 14:37 34.78739 141.64577 33079 ft 529 kts 157°
2026-04-21 14:37 34.72476 141.69161 33056 ft 526 kts 158°
2026-04-21 14:38 34.66201 141.73738 33055 ft 531 kts 157°
2026-04-21 14:38 34.59837 141.78383 33045 ft 530 kts 157°
2026-04-21 14:39 34.53532 141.82971 33053 ft 529 kts 157°
2026-04-21 14:39 34.47226 141.87552 33058 ft 530 kts 157°
2026-04-21 14:40 34.40904 141.92140 33054 ft 530 kts 157°
2026-04-21 14:40 34.34606 141.96698 33053 ft 529 kts 157°
2026-04-21 14:41 34.28288 142.01263 33055 ft 529 kts 157°
2026-04-21 14:41 34.21999 142.05804 33049 ft 526 kts 157°
2026-04-21 14:42 34.15735 142.10312 33052 ft 528 kts 157°
2026-04-21 14:42 34.09398 142.14867 33056 ft 533 kts 156°
2026-04-21 14:43 34.03086 142.19402 33063 ft 528 kts 156°
2026-04-21 14:43 33.96799 142.23906 33057 ft 523 kts 156°
2026-04-21 14:44 33.90556 142.28366 33055 ft 526 kts 156°
2026-04-21 14:44 33.84236 142.32790 33048 ft 517 kts 162°
2026-04-21 14:44 33.80965 142.34410 33063 ft 505 kts 171°
2026-04-21 14:45 33.77589 142.35446 33078 ft 500 kts 177°
2026-04-21 14:45 33.70761 142.37103 33053 ft 498 kts 178°
2026-04-21 14:46 33.63998 142.38666 33053 ft 497 kts 178°
2026-04-21 14:46 33.57184 142.40202 33047 ft 499 kts 178°
2026-04-21 14:47 33.50370 142.41724 33040 ft 499 kts 179°
2026-04-21 14:47 33.43562 142.43239 33046 ft 498 kts 178°
2026-04-21 14:48 33.36732 142.44753 33046 ft 498 kts 178°
2026-04-21 14:48 33.29911 142.46263 33039 ft 497 kts 178°
2026-04-21 14:49 33.23132 142.47760 33048 ft 499 kts 178°
2026-04-21 14:49 33.16315 142.49263 33044 ft 499 kts 178°
2026-04-21 14:50 33.10600 142.50523 33043 ft 499 kts 178°
2026-04-21 14:50 33.02638 142.52274 33042 ft 501 kts 179°